datetime,storage
2003-10-01,483.9
2003-10-02,470.18
2003-10-03,455.4
2003-10-04,440.2
2003-10-05,424.7
2003-10-06,409.17
2003-10-07,393.36
2003-10-08,377.14
2003-10-09,361.0
2003-10-10,344.41
2003-10-11,328.63
2003-10-12,312.72
2003-10-13,297.64
2003-10-14,282.66
2003-10-15,271.29
2003-10-16,270.43
2003-10-17,270.43
2003-10-18,270.43
2003-10-19,270.43
2003-10-20,271.29
2003-10-21,270.86
2003-10-22,270.86
2003-10-23,271.29
2003-10-24,270.86
2003-10-25,270.43
2003-10-26,270.0
2003-10-27,270.0
2003-10-28,270.0
2003-10-29,270.43
2003-10-30,270.86
2003-10-31,272.15
2003-11-01,274.74
2003-11-02,275.62
2003-11-03,277.38
2003-11-04,278.26
2003-11-05,280.02
2003-11-06,281.34
2003-11-07,281.78
2003-11-08,282.22
2003-11-09,283.1
2003-11-10,284.9
2003-11-11,285.35
2003-11-12,285.8
2003-11-13,286.7
2003-11-14,289.4
2003-11-15,289.85
2003-11-16,291.65
2003-11-17,295.32
2003-11-18,297.64
2003-11-19,298.58
2003-11-20,299.05
2003-11-21,301.4
2003-11-22,303.7
2003-11-23,304.16
2003-11-24,305.08
2003-11-25,306.0
2003-11-26,307.92
2003-11-27,309.36
2003-11-28,309.84
2003-11-29,310.32
2003-11-30,311.28
2003-12-01,312.24
2003-12-02,312.72
2003-12-03,313.2
2003-12-04,313.68
2003-12-05,314.16
2003-12-06,315.6
2003-12-07,317.01
2003-12-08,319.36
2003-12-09,321.28
2003-12-10,321.77
2003-12-11,322.75
2003-12-12,323.24
2003-12-13,324.71
2003-12-14,325.69
2003-12-15,327.65
2003-12-16,328.63
2003-12-17,329.12
2003-12-18,330.1
2003-12-19,330.59
2003-12-20,331.57
2003-12-21,333.04
2003-12-22,335.0
2003-12-23,335.5
2003-12-24,336.0
2003-12-25,339.5
2003-12-26,343.43
2003-12-27,345.9
2003-12-28,346.9
2003-12-29,347.9
2003-12-30,351.9
2003-12-31,355.41
2004-01-01,355.92
2004-01-02,361.0
2004-01-03,365.0
2004-01-04,366.0
2004-01-05,366.5
2004-01-06,369.0
2004-01-07,370.51
2004-01-08,371.53
2004-01-09,372.04
2004-01-10,373.06
2004-01-11,374.59
2004-01-12,375.1
2004-01-13,376.12
2004-01-14,376.63
2004-01-15,377.65
2004-01-16,378.16
2004-01-17,379.18
2004-01-18,380.2
2004-01-19,380.71
2004-01-20,381.73
2004-01-21,382.24
2004-01-22,382.75
2004-01-23,383.77
2004-01-24,384.28
2004-01-25,386.3
2004-01-26,387.3
2004-01-27,388.3
2004-01-28,389.8
2004-01-29,390.3
2004-01-30,391.32
2004-01-31,392.85
2004-02-01,393.87
2004-02-02,394.38
2004-02-03,396.42
2004-02-04,397.95
2004-02-05,399.48
2004-02-06,399.99
2004-02-07,401.52
2004-02-08,403.05
2004-02-09,403.56
2004-02-10,404.58
2004-02-11,405.09
2004-02-12,405.6
2004-02-13,406.62
2004-02-14,407.13
2004-02-15,407.64
2004-02-16,408.15
2004-02-17,409.17
2004-02-18,409.68
2004-02-19,411.2
2004-02-20,412.2
2004-02-21,412.7
2004-02-22,414.2
2004-02-23,415.2
2004-02-24,415.7
2004-02-25,416.7
2004-02-26,418.2
2004-02-27,420.7
2004-02-28,422.7
2004-02-29,424.2
2004-03-01,425.2
2004-03-02,426.2
2004-03-03,426.7
2004-03-04,427.7
2004-03-05,429.2
2004-03-06,430.7
2004-03-07,431.7
2004-03-08,432.2
2004-03-09,432.7
2004-03-10,433.7
2004-03-11,434.7
2004-03-12,435.7
2004-03-13,436.2
2004-03-14,437.2
2004-03-15,438.2
2004-03-16,438.7
2004-03-17,439.2
2004-03-18,440.2
2004-03-19,441.19
2004-03-20,442.17
2004-03-21,443.64
2004-03-22,445.6
2004-03-23,447.56
2004-03-24,450.99
2004-03-25,454.42
2004-03-26,457.8
2004-03-27,461.16
2004-03-28,464.52
2004-03-29,466.41
2004-03-30,468.76
2004-03-31,471.14
2004-04-01,473.54
2004-04-02,477.32
2004-04-03,481.08
2004-04-04,485.31
2004-04-05,489.54
2004-04-06,493.77
2004-04-07,498.94
2004-04-08,504.14
2004-04-09,509.46
2004-04-10,514.32
2004-04-11,518.2
2004-04-12,522.2
2004-04-13,526.7
2004-04-14,532.3
2004-04-15,537.93
2004-04-16,543.24
2004-04-17,548.1
2004-04-18,554.74
2004-04-19,559.87
2004-04-20,565.0
2004-04-21,571.51
2004-04-22,576.39
2004-04-23,580.05
2004-04-24,583.73
2004-04-25,587.51
2004-04-26,592.6
2004-04-27,600.28
2004-04-28,612.05
2004-04-29,626.69
2004-04-30,639.38
2004-05-01,651.52
2004-05-02,668.23
2004-05-03,693.08
2004-05-04,729.6
2004-05-05,778.18
2004-05-06,842.15
2004-05-07,921.98
2004-05-08,1000.01
2004-05-09,1084.31
2004-05-10,1161.02
2004-05-11,1181.66
2004-05-12,1169.62
2004-05-13,1154.14
2004-05-14,1142.0
2004-05-15,1136.74
2004-05-16,1139.36
2004-05-17,1153.28
2004-05-18,1168.76
2004-05-19,1173.06
2004-05-20,1170.48
2004-05-21,1169.62
2004-05-22,1167.9
2004-05-23,1163.6
2004-05-24,1158.44
2004-05-25,1151.56
2004-05-26,1142.0
2004-05-27,1137.6
2004-05-28,1148.98
2004-05-29,1163.6
2004-05-30,1165.32
2004-05-31,1163.6
2004-06-01,1167.9
2004-06-02,1173.92
2004-06-03,1178.22
2004-06-04,1179.08
2004-06-05,1174.78
2004-06-06,1170.48
2004-06-07,1166.18
2004-06-08,1160.16
2004-06-09,1156.72
2004-06-10,1160.16
2004-06-11,1164.46
2004-06-12,1164.46
2004-06-13,1161.88
2004-06-14,1161.02
2004-06-15,1166.18
2004-06-16,1167.04
2004-06-17,1168.76
2004-06-18,1172.2
2004-06-19,1168.76
2004-06-20,1166.18
2004-06-21,1166.18
2004-06-22,1163.6
2004-06-23,1161.88
2004-06-24,1160.16
2004-06-25,1160.16
2004-06-26,1159.3
2004-06-27,1159.3
2004-06-28,1159.3
2004-06-29,1162.74
2004-06-30,1166.18
2004-07-01,1166.18
2004-07-02,1166.18
2004-07-03,1166.18
2004-07-04,1166.18
2004-07-05,1162.74
2004-07-06,1161.88
2004-07-07,1161.88
2004-07-08,1161.02
2004-07-09,1160.16
2004-07-10,1160.16
2004-07-11,1160.16
2004-07-12,1159.3
2004-07-13,1158.44
2004-07-14,1159.3
2004-07-15,1160.16
2004-07-16,1165.32
2004-07-17,1167.04
2004-07-18,1172.2
2004-07-19,1171.34
2004-07-20,1166.18
2004-07-21,1166.18
2004-07-22,1164.46
2004-07-23,1165.32
2004-07-24,1163.6
2004-07-25,1157.58
2004-07-26,1135.02
2004-07-27,1112.37
2004-07-28,1091.29
2004-07-29,1068.47
2004-07-30,1041.2
2004-07-31,1005.23
2004-08-01,970.53
2004-08-02,937.95
2004-08-03,905.44
2004-08-04,872.58
2004-08-05,841.4
2004-08-06,812.52
2004-08-07,785.74
2004-08-08,759.76
2004-08-09,734.4
2004-08-10,708.82
2004-08-11,682.1
2004-08-12,653.56
2004-08-13,625.35
2004-08-14,597.72
2004-08-15,571.51
2004-08-16,548.1
2004-08-17,527.2
2004-08-18,507.99
2004-08-19,489.54
2004-08-20,469.7
2004-08-21,449.52
2004-08-22,428.2
2004-08-23,412.2
2004-08-24,410.7
2004-08-25,409.17
2004-08-26,409.17
2004-08-27,407.13
2004-08-28,404.58
2004-08-29,402.03
2004-08-30,398.97
2004-08-31,396.42
2004-09-01,393.36
2004-09-02,390.81
2004-09-03,387.8
2004-09-04,385.8
2004-09-05,383.26
2004-09-06,380.71
2004-09-07,377.65
2004-09-08,375.1
2004-09-09,372.04
2004-09-10,369.0
2004-09-11,366.0
2004-09-12,363.0
2004-09-13,361.5
2004-09-14,358.47
2004-09-15,355.41
2004-09-16,352.4
2004-09-17,349.4
2004-09-18,345.9
2004-09-19,342.94
2004-09-20,341.96
2004-09-21,339.5
2004-09-22,336.5
2004-09-23,334.02
2004-09-24,331.57
2004-09-25,328.63
2004-09-26,326.18
2004-09-27,323.24
2004-09-28,321.28
2004-09-29,319.83
2004-09-30,319.36
2004-10-01,319.36
2004-10-02,316.07
2004-10-03,313.68
2004-10-04,311.76
2004-10-05,309.36
2004-10-06,306.96
2004-10-07,304.62
2004-10-08,304.16
2004-10-09,304.16
2004-10-10,305.08
2004-10-11,306.96
2004-10-12,307.92
2004-10-13,307.92
2004-10-14,308.4
2004-10-15,308.4
2004-10-16,308.4
2004-10-17,308.88
2004-10-18,312.72
2004-10-19,316.54
2004-10-20,321.77
2004-10-21,328.14
2004-10-22,332.06
2004-10-23,332.55
2004-10-24,340.98
2004-10-25,342.94
2004-10-26,347.9
2004-10-27,349.4
2004-10-28,350.9
2004-10-29,352.4
2004-10-30,352.9
2004-10-31,353.9
2004-11-01,355.41
2004-11-02,365.5
2004-11-03,368.5
2004-11-04,370.0
2004-11-05,371.53
2004-11-06,372.55
2004-11-07,374.59
2004-11-08,376.63
2004-11-09,379.69
2004-11-10,383.26
2004-11-11,385.3
2004-11-12,388.3
2004-11-13,390.3
2004-11-14,391.83
2004-11-15,393.87
2004-11-16,395.4
2004-11-17,397.44
2004-11-18,397.44
2004-11-19,400.5
2004-11-20,402.54
2004-11-21,404.07
2004-11-22,405.6
2004-11-23,407.13
2004-11-24,408.66
2004-11-25,410.19
2004-11-26,412.7
2004-11-27,415.7
2004-11-28,418.7
2004-11-29,420.2
2004-11-30,421.7
2004-12-01,423.2
2004-12-02,424.7
2004-12-03,425.7
2004-12-04,427.2
2004-12-05,428.7
2004-12-06,430.2
2004-12-07,432.2
2004-12-08,436.2
2004-12-09,441.68
2004-12-10,444.13
2004-12-11,445.6
2004-12-12,447.07
2004-12-13,448.05
2004-12-14,450.01
2004-12-15,450.99
2004-12-16,452.46
2004-12-17,453.44
2004-12-18,454.42
2004-12-19,455.88
2004-12-20,456.84
2004-12-21,458.28
2004-12-22,459.24
2004-12-23,461.16
2004-12-24,462.12
2004-12-25,462.6
2004-12-26,463.56
2004-12-27,465.0
2004-12-28,465.94
2004-12-29,469.23
2004-12-30,474.02
2004-12-31,476.38
2005-01-01,482.49
2005-01-02,482.96
2005-01-03,485.31
2005-01-04,487.19
2005-01-05,488.13
2005-01-06,489.54
2005-01-07,490.48
2005-01-08,491.42
2005-01-09,492.36
2005-01-10,495.65
2005-01-11,507.99
2005-01-12,518.2
2005-01-13,518.7
2005-01-14,520.7
2005-01-15,522.2
2005-01-16,523.7
2005-01-17,525.2
2005-01-18,526.7
2005-01-19,528.22
2005-01-20,529.24
2005-01-21,530.77
2005-01-22,531.79
2005-01-23,532.81
2005-01-24,533.83
2005-01-25,535.36
2005-01-26,536.38
2005-01-27,537.93
2005-01-28,539.52
2005-01-29,541.11
2005-01-30,542.7
2005-01-31,543.78
2005-02-01,545.4
2005-02-02,545.94
2005-02-03,547.56
2005-02-04,548.65
2005-02-05,549.75
2005-02-06,550.85
2005-02-07,554.17
2005-02-08,555.88
2005-02-09,557.59
2005-02-10,558.16
2005-02-11,559.87
2005-02-12,562.15
2005-02-13,564.43
2005-02-14,566.77
2005-02-15,572.12
2005-02-16,573.95
2005-02-17,575.78
2005-02-18,576.39
2005-02-19,578.83
2005-02-20,582.49
2005-02-21,584.99
2005-02-22,586.25
2005-02-23,588.14
2005-02-24,590.04
2005-02-25,591.32
2005-02-26,591.96
2005-02-27,593.24
2005-02-28,594.52
2005-03-01,595.8
2005-03-02,597.08
2005-03-03,598.36
2005-03-04,599.64
2005-03-05,600.92
2005-03-06,601.56
2005-03-07,602.86
2005-03-08,603.52
2005-03-09,604.18
2005-03-10,605.5
2005-03-11,606.82
2005-03-12,608.14
2005-03-13,608.8
2005-03-14,610.1
2005-03-15,612.05
2005-03-16,613.35
2005-03-17,615.97
2005-03-18,617.98
2005-03-19,619.99
2005-03-20,622.67
2005-03-21,626.02
2005-03-22,628.03
2005-03-23,632.0
2005-03-24,635.98
2005-03-25,638.02
2005-03-26,640.74
2005-03-27,642.1
2005-03-28,644.78
2005-03-29,649.48
2005-03-30,652.2
2005-03-31,655.6
2005-04-01,656.26
2005-04-02,657.58
2005-04-03,658.9
2005-04-04,660.22
2005-04-05,662.87
2005-04-06,664.21
2005-04-07,662.87
2005-04-08,657.58
2005-04-09,651.52
2005-04-10,638.02
2005-04-11,623.34
2005-04-12,602.86
2005-04-13,577.0
2005-04-14,551.4
2005-04-15,528.22
2005-04-16,501.76
2005-04-17,474.02
2005-04-18,446.09
2005-04-19,418.2
2005-04-20,416.2
2005-04-21,421.7
2005-04-22,425.7
2005-04-23,429.2
2005-04-24,434.2
2005-04-25,438.7
2005-04-26,442.66
2005-04-27,447.07
2005-04-28,453.44
2005-04-29,458.76
2005-04-30,463.56
2005-05-01,467.35
2005-05-02,471.62
2005-05-03,475.44
2005-05-04,478.26
2005-05-05,482.02
2005-05-06,482.02
2005-05-07,488.6
2005-05-08,496.12
2005-05-09,507.02
2005-05-10,515.28
2005-05-11,526.2
2005-05-12,532.81
2005-05-13,538.99
2005-05-14,545.4
2005-05-15,554.74
2005-05-16,569.13
2005-05-17,592.6
2005-05-18,613.35
2005-05-19,639.38
2005-05-20,682.75
2005-05-21,742.8
2005-05-22,824.2
2005-05-23,953.34
2005-05-24,1116.72
2005-05-25,1228.0
2005-05-26,1221.98
2005-05-27,1187.68
2005-05-28,1174.78
2005-05-29,1173.06
2005-05-30,1166.18
2005-05-31,1142.88
2005-06-01,1115.85
2005-06-02,1079.86
2005-06-03,1037.68
2005-06-04,995.66
2005-06-05,973.98
2005-06-06,991.31
2005-06-07,1008.74
2005-06-08,1004.36
2005-06-09,986.96
2005-06-10,961.85
2005-06-11,933.74
2005-06-12,905.44
2005-06-13,875.7
2005-06-14,861.72
2005-06-15,885.2
2005-06-16,949.9
2005-06-17,1050.0
2005-06-18,1165.32
2005-06-19,1202.2
2005-06-20,1204.78
2005-06-21,1203.06
2005-06-22,1208.22
2005-06-23,1215.1
2005-06-24,1211.66
2005-06-25,1202.2
2005-06-26,1201.34
2005-06-27,1191.95
2005-06-28,1182.52
2005-06-29,1173.92
2005-06-30,1172.2
2005-07-01,1169.62
2005-07-02,1168.76
2005-07-03,1165.32
2005-07-04,1158.44
2005-07-05,1163.6
2005-07-06,1170.48
2005-07-07,1167.9
2005-07-08,1165.32
2005-07-09,1164.46
2005-07-10,1162.74
2005-07-11,1161.02
2005-07-12,1160.16
2005-07-13,1160.16
2005-07-14,1160.16
2005-07-15,1160.16
2005-07-16,1158.44
2005-07-17,1156.72
2005-07-18,1155.86
2005-07-19,1157.58
2005-07-20,1158.44
2005-07-21,1158.44
2005-07-22,1158.44
2005-07-23,1159.3
2005-07-24,1159.3
2005-07-25,1160.16
2005-07-26,1158.784
2005-07-27,1157.58
2005-07-28,1156.72
2005-07-29,1155.86
2005-07-30,1156.72
2005-07-31,1157.58
2005-08-01,1157.752
2005-08-02,1157.838
2005-08-03,1158.44
2005-08-04,1156.72
2005-08-05,1152.42
2005-08-06,1145.52
2005-08-07,1137.6
2005-08-08,1130.72
2005-08-09,1124.6
2005-08-10,1117.59
2005-08-11,1109.76
2005-08-12,1101.91
2005-08-13,1093.03
2005-08-14,1085.2
2005-08-15,1075.43
2005-08-16,1067.6
2005-08-17,1061.44
2005-08-18,1053.52
2005-08-19,1044.72
2005-08-20,1035.04
2005-08-21,1026.24
2005-08-22,1018.38
2005-08-23,1010.5
2005-08-24,1002.62
2005-08-25,993.05
2005-08-26,984.35
2005-08-27,974.84
2005-08-28,966.18
2005-08-29,956.75
2005-08-30,947.32
2005-08-31,937.1
2005-09-01,927.86
2005-09-02,918.64
2005-09-03,911.18
2005-09-04,903.8
2005-09-05,895.6
2005-09-06,886.8
2005-09-07,878.82
2005-09-08,872.58
2005-09-09,871.8
2005-09-10,867.9
2005-09-11,860.2
2005-09-12,851.9
2005-09-13,845.15
2005-09-14,837.8
2005-09-15,829.88
2005-09-16,822.1
2005-09-17,815.24
2005-09-18,807.76
2005-09-19,800.46
2005-09-20,793.3
2005-09-21,787.0
2005-09-22,781.96
2005-09-23,775.66
2005-09-24,768.91
2005-09-25,762.81
2005-09-26,755.5
2005-09-27,750.1
2005-09-28,742.8
2005-09-29,730.2
2005-09-30,716.8
2005-10-01,703.82
2005-10-02,689.24
2005-10-03,674.84
2005-10-04,659.56
2005-10-05,647.46
2005-10-06,634.64
2005-10-07,617.31
2005-10-08,597.08
2005-10-09,578.22
2005-10-10,559.87
2005-10-11,542.7
2005-10-12,526.7
2005-10-13,510.93
2005-10-14,496.12
2005-10-15,481.08
2005-10-16,466.41
2005-10-17,450.99
2005-10-18,435.7
2005-10-19,420.7
2005-10-20,404.58
2005-10-21,388.3
2005-10-22,371.53
2005-10-23,358.47
2005-10-24,357.45
2005-10-25,357.96
2005-10-26,358.98
2005-10-27,358.98
2005-10-28,361.0
2005-10-29,362.5
2005-10-30,364.0
2005-10-31,364.0
2005-11-01,365.0
2005-11-02,369.0
2005-11-03,365.5
2005-11-04,368.0
2005-11-05,371.02
2005-11-06,372.04
2005-11-07,373.06
2005-11-08,375.61
2005-11-09,376.12
2005-11-10,376.63
2005-11-11,377.65
2005-11-12,379.69
2005-11-13,381.73
2005-11-14,385.8
2005-11-15,388.8
2005-11-16,390.3
2005-11-17,390.3
2005-11-18,391.32
2005-11-19,391.83
2005-11-20,391.83
2005-11-21,392.34
2005-11-22,393.36
2005-11-23,393.87
2005-11-24,394.38
2005-11-25,394.89
2005-11-26,396.93
2005-11-27,398.97
2005-11-28,399.48
2005-11-29,400.5
2005-11-30,404.07
2005-12-01,407.13
2005-12-02,414.2
2005-12-03,417.7
2005-12-04,420.2
2005-12-05,421.7
2005-12-06,423.2
2005-12-07,425.2
2005-12-08,426.2
2005-12-09,426.7
2005-12-10,427.7
2005-12-11,428.2
2005-12-12,429.2
2005-12-13,430.2
2005-12-14,431.2
2005-12-15,431.7
2005-12-16,432.2
2005-12-17,433.2
2005-12-18,435.7
2005-12-19,437.7
2005-12-20,439.2
2005-12-21,439.7
2005-12-22,441.68
2005-12-23,444.62
2005-12-24,445.11
2005-12-25,446.09
2005-12-26,447.56
2005-12-27,450.01
2005-12-28,451.48
2005-12-29,453.93
2005-12-30,455.4
2005-12-31,463.08
2006-01-01,469.7
2006-01-02,472.1
2006-01-03,476.38
2006-01-04,479.2
2006-01-05,480.14
2006-01-06,481.55
2006-01-07,482.96
2006-01-08,485.31
2006-01-09,486.25
2006-01-10,487.19
2006-01-11,488.6
2006-01-12,491.42
2006-01-13,491.89
2006-01-14,492.83
2006-01-15,494.71
2006-01-16,496.12
2006-01-17,497.06
2006-01-18,499.41
2006-01-19,501.29
2006-01-20,502.7
2006-01-21,503.66
2006-01-22,504.14
2006-01-23,504.62
2006-01-24,505.1
2006-01-25,506.06
2006-01-26,507.5
2006-01-27,508.48
2006-01-28,509.95
2006-01-29,512.4
2006-01-30,513.84
2006-01-31,516.24
2006-02-01,517.7
2006-02-02,520.7
2006-02-03,522.2
2006-02-04,523.2
2006-02-05,525.2
2006-02-06,526.2
2006-02-07,526.7
2006-02-08,527.71
2006-02-09,528.22
2006-02-10,528.73
2006-02-11,529.24
2006-02-12,529.24
2006-02-13,530.26
2006-02-14,530.77
2006-02-15,531.79
2006-02-16,533.32
2006-02-17,534.34
2006-02-18,534.85
2006-02-19,536.38
2006-02-20,537.4
2006-02-21,537.93
2006-02-22,538.46
2006-02-23,538.99
2006-02-24,539.52
2006-02-25,540.58
2006-02-26,541.11
2006-02-27,541.64
2006-02-28,543.24
2006-03-01,545.94
2006-03-02,546.48
2006-03-03,547.56
2006-03-04,548.1
2006-03-05,548.65
2006-03-06,549.2
2006-03-07,551.95
2006-03-08,553.05
2006-03-09,554.74
2006-03-10,556.45
2006-03-11,557.59
2006-03-12,558.16
2006-03-13,559.3
2006-03-14,559.87
2006-03-15,562.15
2006-03-16,563.29
2006-03-17,564.43
2006-03-18,565.59
2006-03-19,567.36
2006-03-20,568.54
2006-03-21,570.31
2006-03-22,572.12
2006-03-23,572.73
2006-03-24,572.73
2006-03-25,573.95
2006-03-26,576.39
2006-03-27,577.61
2006-03-28,578.22
2006-03-29,582.49
2006-03-30,584.36
2006-03-31,585.62
2006-04-01,586.88
2006-04-02,588.77
2006-04-03,589.4
2006-04-04,590.68
2006-04-05,593.24
2006-04-06,598.36
2006-04-07,602.86
2006-04-08,604.18
2006-04-09,604.84
2006-04-10,606.82
2006-04-11,608.8
2006-04-12,610.1
2006-04-13,612.05
2006-04-14,613.35
2006-04-15,617.31
2006-04-16,619.32
2006-04-17,621.33
2006-04-18,625.35
2006-04-19,627.36
2006-04-20,628.7
2006-04-21,630.68
2006-04-22,632.66
2006-04-23,635.98
2006-04-24,640.74
2006-04-25,646.79
2006-04-26,650.16
2006-04-27,654.24
2006-04-28,660.22
2006-04-29,666.22
2006-04-30,674.18
2006-05-01,681.44
2006-05-02,680.78
2006-05-03,683.4
2006-05-04,686.0
2006-05-05,691.16
2006-05-06,692.44
2006-05-07,693.08
2006-05-08,696.89
2006-05-09,701.93
2006-05-10,708.82
2006-05-11,717.42
2006-05-12,730.2
2006-05-13,753.1
2006-05-14,787.0
2006-05-15,834.92
2006-05-16,894.8
2006-05-17,941.35
2006-05-18,997.4
2006-05-19,1067.6
2006-05-20,1138.48
2006-05-21,1185.96
2006-05-22,1197.05
2006-05-23,1173.92
2006-05-24,1155.86
2006-05-25,1163.6
2006-05-26,1172.2
2006-05-27,1170.48
2006-05-28,1143.76
2006-05-29,1093.03
2006-05-30,1037.68
2006-05-31,1011.38
2006-06-01,1018.38
2006-06-02,1067.6
2006-06-03,1118.46
2006-06-04,1156.72
2006-06-05,1183.38
2006-06-06,1183.38
2006-06-07,1180.8
2006-06-08,1182.52
2006-06-09,1181.66
2006-06-10,1180.8
2006-06-11,1171.34
2006-06-12,1163.6
2006-06-13,1161.02
2006-06-14,1161.88
2006-06-15,1161.88
2006-06-16,1161.88
2006-06-17,1162.74
2006-06-18,1165.32
2006-06-19,1165.32
2006-06-20,1163.6
2006-06-21,1162.74
2006-06-22,1161.02
2006-06-23,1160.16
2006-06-24,1159.3
2006-06-25,1159.3
2006-06-26,1159.3
2006-06-27,1160.16
2006-06-28,1158.44
2006-06-29,1157.58
2006-06-30,1159.3
2006-07-01,1159.3
2006-07-02,1157.58
2006-07-03,1155.86
2006-07-04,1156.72
2006-07-05,1156.72
2006-07-06,1156.72
2006-07-07,1155.86
2006-07-08,1155.0
2006-07-09,1155.0
2006-07-10,1155.0
2006-07-11,1155.0
2006-07-12,1155.0
2006-07-13,1155.0
2006-07-14,1153.28
2006-07-15,1152.42
2006-07-16,1152.42
2006-07-17,1151.56
2006-07-18,1150.7
2006-07-19,1142.88
2006-07-20,1116.72
2006-07-21,1097.46
2006-07-22,1078.97
2006-07-23,1057.92
2006-07-24,1033.28
2006-07-25,1007.86
2006-07-26,983.48
2006-07-27,957.6
2006-07-28,932.06
2006-07-29,907.9
2006-07-30,884.4
2006-07-31,862.48
2006-08-01,847.4
2006-08-02,828.44
2006-08-03,808.44
2006-08-04,789.52
2006-08-05,771.35
2006-08-06,754.9
2006-08-07,739.8
2006-08-08,722.34
2006-08-09,703.82
2006-08-10,684.7
2006-08-11,665.55
2006-08-12,645.45
2006-08-13,626.02
2006-08-14,607.48
2006-08-15,590.04
2006-08-16,573.95
2006-08-17,556.45
2006-08-18,540.05
2006-08-19,524.7
2006-08-20,509.95
2006-08-21,495.65
2006-08-22,482.02
2006-08-23,469.7
2006-08-24,464.04
2006-08-25,463.56
2006-08-26,465.0
2006-08-27,465.47
2006-08-28,465.0
2006-08-29,465.0
2006-08-30,465.0
2006-08-31,465.0
2006-09-01,464.52
2006-09-02,463.56
2006-09-03,463.56
2006-09-04,463.08
2006-09-05,463.08
2006-09-06,463.08
2006-09-07,463.08
2006-09-08,464.52
2006-09-09,465.0
2006-09-10,465.47
2006-09-11,466.41
2006-09-12,465.47
2006-09-13,465.94
2006-09-14,465.94
2006-09-15,469.7
2006-09-16,473.54
2006-09-17,474.97
2006-09-18,474.97
2006-09-19,475.44
2006-09-20,477.32
2006-09-21,479.67
2006-09-22,482.49
2006-09-23,485.78
2006-09-24,485.31
2006-09-25,486.72
2006-09-26,488.6
2006-09-27,489.54
2006-09-28,490.01
2006-09-29,490.95
2006-09-30,491.42
2006-10-01,491.89
2006-10-02,492.83
2006-10-03,497.53
2006-10-04,499.88
2006-10-05,506.06
2006-10-06,510.44
2006-10-07,520.7
2006-10-08,526.7
2006-10-09,532.3
2006-10-10,537.4
2006-10-11,541.64
2006-10-12,545.4
2006-10-13,548.65
2006-10-14,551.4
2006-10-15,554.17
2006-10-16,556.45
2006-10-17,549.2
2006-10-18,540.05
2006-10-19,530.77
2006-10-20,522.2
2006-10-21,514.32
2006-10-22,505.1
2006-10-23,496.12
2006-10-24,487.66
2006-10-25,479.2
2006-10-26,472.1
2006-10-27,462.6
2006-10-28,453.93
2006-10-29,442.17
2006-10-30,435.2
2006-10-31,427.7
2006-11-01,428.2
2006-11-02,430.2
2006-11-03,431.7
2006-11-04,433.7
2006-11-05,436.2
2006-11-06,437.7
2006-11-07,439.7
2006-11-08,441.68
2006-11-09,444.13
2006-11-10,447.07
2006-11-11,449.03
2006-11-12,451.97
2006-11-13,454.42
2006-11-14,460.68
2006-11-15,466.88
2006-11-16,468.76
2006-11-17,470.66
2006-11-18,472.1
2006-11-19,473.54
2006-11-20,474.97
2006-11-21,475.91
2006-11-22,477.32
2006-11-23,478.73
2006-11-24,480.14
2006-11-25,481.55
2006-11-26,482.49
2006-11-27,484.84
2006-11-28,489.07
2006-11-29,490.48
2006-11-30,491.796
2006-12-01,493.112
2006-12-02,494.428
2006-12-03,495.744
2006-12-04,497.06
2006-12-05,498.0
2006-12-06,498.94
2006-12-07,500.35
2006-12-08,501.29
2006-12-09,502.23
2006-12-10,503.18
2006-12-11,505.1
2006-12-12,506.06
2006-12-13,507.5
2006-12-14,509.95
2006-12-15,510.93
2006-12-16,513.84
2006-12-17,515.76
2006-12-18,517.2
2006-12-19,518.2
2006-12-20,519.2
2006-12-21,520.2
2006-12-22,521.7
2006-12-23,522.7
2006-12-24,524.7
2006-12-25,525.7
2006-12-26,526.7
2006-12-27,528.73
2006-12-28,531.28
2006-12-29,531.79
2006-12-30,532.81
2006-12-31,533.32
2007-01-01,534.34
2007-01-02,535.36
2007-01-03,536.38
2007-01-04,538.46
2007-01-05,541.11
2007-01-06,542.7
2007-01-07,543.78
2007-01-08,544.32
2007-01-09,545.4
2007-01-10,546.48
2007-01-11,547.56
2007-01-12,549.75
2007-01-13,550.85
2007-01-14,551.95
2007-01-15,552.5
2007-01-16,553.6
2007-01-17,554.74
2007-01-18,554.74
2007-01-19,555.88
2007-01-20,557.02
2007-01-21,558.16
2007-01-22,559.3
2007-01-23,559.3
2007-01-24,559.87
2007-01-25,560.44
2007-01-26,561.58
2007-01-27,561.58
2007-01-28,562.72
2007-01-29,563.29
2007-01-30,563.86
2007-01-31,565.0
2007-02-01,566.18
2007-02-02,567.36
2007-02-03,567.95
2007-02-04,568.54
2007-02-05,568.54
2007-02-06,569.13
2007-02-07,570.31
2007-02-08,570.9
2007-02-09,571.51
2007-02-10,572.12
2007-02-11,577.61
2007-02-12,580.66
2007-02-13,581.88
2007-02-14,583.1
2007-02-15,584.36
2007-02-16,586.88
2007-02-17,588.14
2007-02-18,589.4
2007-02-19,591.32
2007-02-20,592.6
2007-02-21,593.88
2007-02-22,593.88
2007-02-23,596.44
2007-02-24,598.36
2007-02-25,600.28
2007-02-26,603.52
2007-02-27,606.82
2007-02-28,609.45
2007-03-01,610.75
2007-03-02,613.35
2007-03-03,614.0
2007-03-04,614.65
2007-03-05,615.97
2007-03-06,616.64
2007-03-07,617.31
2007-03-08,619.99
2007-03-09,620.66
2007-03-10,622.67
2007-03-11,623.34
2007-03-12,624.01
2007-03-13,625.35
2007-03-14,626.69
2007-03-15,628.03
2007-03-16,628.7
2007-03-17,630.02
2007-03-18,631.34
2007-03-19,633.98
2007-03-20,635.98
2007-03-21,638.02
2007-03-22,638.02
2007-03-23,642.77
2007-03-24,644.11
2007-03-25,646.79
2007-03-26,648.8
2007-03-27,652.2
2007-03-28,658.9
2007-03-29,664.88
2007-03-30,667.56
2007-03-31,670.22
2007-04-01,671.54
2007-04-02,674.84
2007-04-03,676.82
2007-04-04,678.8
2007-04-05,681.44
2007-04-06,684.05
2007-04-07,687.95
2007-04-08,692.44
2007-04-09,697.52
2007-04-10,703.19
2007-04-11,706.97
2007-04-12,711.26
2007-04-13,714.94
2007-04-14,718.04
2007-04-15,721.12
2007-04-16,726.0
2007-04-17,730.2
2007-04-18,736.2
2007-04-19,743.4
2007-04-20,801.78
2007-04-21,806.4
2007-04-22,813.2
2007-04-23,816.6
2007-04-24,818.64
2007-04-25,820.0
2007-04-26,838.52
2007-04-27,857.92
2007-04-28,858.68
2007-04-29,860.2
2007-04-30,864.0
2007-05-01,895.6
2007-05-02,945.6
2007-05-03,988.7
2007-05-04,997.4
2007-05-05,1006.1
2007-05-06,1014.9
2007-05-07,1023.6
2007-05-08,1028.0
2007-05-09,1032.4
2007-05-10,1036.8
2007-05-11,1041.2
2007-05-12,1045.6
2007-05-13,1050.0
2007-05-14,1058.8
2007-05-15,1169.62
2007-05-16,1164.46
2007-05-17,1158.44
2007-05-18,1161.02
2007-05-19,1168.76
2007-05-20,1169.62
2007-05-21,1164.46
2007-05-22,1152.42
2007-05-23,1134.16
2007-05-24,1135.02
2007-05-25,1132.44
2007-05-26,1135.88
2007-05-27,1159.3
2007-05-28,1173.92
2007-05-29,1172.2
2007-05-30,1166.18
2007-05-31,1166.18